Starlink 31581

operational
NORAD ID: 59474 Int'l Des: 2024-068 Owner: SPXS Country: US Constellation: starlink
LEOCIRCULAR

关于 Starlink 31581

正在加载描述...

实时位置

正在加载3D地球...

即将过境

高度历史

Altitude vs Time

uPlot chart will show altitude changes over time

两行轨道根数

1 59474U 24068V 25352.73349906 -.00001197 00000-0 -33992-4 0 9997
2 59474 42.9989 124.5962 0001486 273.7919 86.2763 15.27581003 96221
Epoch: Dec 18, 2025 • Age: 12 hours

当前状态

高度 484.7 km
速度 7.63 km/s
星下点 31.50°N, 95.66°E
发射日期 Apr 10, 2024
运行时间 1.6 years
类型 internet

技术详情

分类 Payload
质量 730.00 kg
干质量 700.00 kg
总质量 730.00 kg
长度 0.30 m
直径 4.10 m
跨度 29.00 m
形状 Box + pan
制造商 SPXS
平台类型 Starlink V2M
阶段状态 In Orbit
所有者/国家 SPXS/US

大型星座

Loading constellations...